KC2ZHA Weather Reports


time (UTC)temp
F
wind
direction
speed
knots
gust
knots
rain 1hr
in
rain 24hr
in
rain mn
in
humidity
%
barometer
mb
20260507164644 54 349 0.9 6.1 0.00 0.03 0.03 76 1012.7
20260507164409 54 349 1.7 7.8 0.00 0.03 0.03 76 1012.9
20260507163410 54 349 1.7 7.8 0.00 0.03 0.03 78 1012.7
20260507162626 54 349 0.9 7.8 0.00 0.03 0.03 77 1012.9
20260507162114 54 349 1.7 7.0 0.00 0.03 0.03 78 1012.9
20260507161608 54 349 1.7 7.0 0.00 0.03 0.03 77 1013.1
20260507161102 54 349 1.7 7.0 0.00 0.03 0.03 78 1013.1
20260507160603 54 349 2.6 7.0 0.00 0.03 0.03 78 1013.3
20260507160050 54 349 2.6 9.6 0.00 0.03 0.03 78 1013.1
20260507155544 54 349 2.6 9.6 0.00 0.03 0.03 77 1013.1
20260507155039 55 349 2.6 9.6 0.00 0.03 0.03 78 1013.0
20260507154803 55 349 3.5 9.6 0.00 0.03 0.03 78 1012.9
20260507154026 55 349 3.5 9.6 0.00 0.03 0.03 78 1012.7
20260507153520 55 349 3.5 9.6 0.00 0.03 0.03 78 1012.9
20260507153014 55 349 2.6 7.0 0.00 0.04 0.03 79 1012.8
20260507152516 55 349 3.5 12.2 0.00 0.04 0.03 79 1012.6
20260507152016 55 349 2.6 12.2 0.00 0.04 0.03 81 1012.7
20260507151510 55 349 1.7 5.2 0.00 0.04 0.03 86 1012.8
20260507151010 55 349 1.7 5.2 0.00 0.04 0.03 85 1012.8
20260507150511 55 349 1.7 4.3 0.00 0.04 0.03 85 1012.7
20260507150009 55 349 1.7 4.3 0.00 0.04 0.03 86 1012.9
20260507145516 55 349 1.7 5.2 0.00 0.04 0.03 85 1012.8
20260507145008 55 349 1.7 6.1 0.00 0.04 0.03 85 1012.8
20260507144506 55 349 1.7 6.1 0.00 0.05 0.03 84 1012.7
20260507144006 55 349 1.7 6.1 0.00 0.05 0.03 84 1012.8
20260507143507 55 349 1.7 5.2 0.00 0.05 0.03 84 1012.9
20260507143006 56 349 0.9 4.3 0.00 0.05 0.03 83 1013.0
20260507142005 56 349 1.7 4.3 0.00 0.05 0.03 82 1013.0
20260507141502 56 349 1.7 4.3 0.00 0.05 0.03 81 1012.7
20260507141003 56 350 1.7 5.2 0.00 0.05 0.03 81 1012.8
20260507140502 56 349 2.6 5.2 0.00 0.05 0.03 81 1012.9
20260507140000 56 349 2.6 6.1 0.00 0.05 0.03 81 1012.8
20260507135459 56 349 1.7 6.1 0.00 0.05 0.03 80 1012.9
20260507134959 56 349 1.7 6.1 0.00 0.05 0.03 81 1012.8
20260507134458 56 349 1.7 7.0 0.00 0.05 0.03 81 1012.9
20260507133956 56 349 2.6 7.0 0.00 0.07 0.03 81 1013.0
20260507133456 56 349 1.7 6.1 0.00 0.08 0.03 81 1012.9
20260507132956 56 349 0.9 3.5 0.00 0.08 0.03 82 1013.1
20260507132454 56 349 1.7 4.3 0.00 0.08 0.03 81 1012.9
20260507131954 56 349 1.7 5.2 0.00 0.09 0.03 82 1013.0
20260507131454 56 349 2.6 6.1 0.00 0.09 0.03 81 1012.9
20260507130954 56 349 2.6 7.0 0.00 0.10 0.03 81 1012.9
20260507130454 56 349 2.6 7.8 0.00 0.11 0.03 81 1012.7
20260507125955 56 349 2.6 7.8 0.00 0.11 0.03 81 1012.6
20260507125454 56 349 2.6 7.0 0.00 0.11 0.03 82 1012.2
20260507124955 57 349 2.6 7.0 0.00 0.11 0.03 83 1012.3
20260507124454 56 349 1.7 5.2 0.00 0.11 0.03 83 1012.6
20260507123454 56 349 2.6 7.8 0.00 0.11 0.03 83 1012.2
20260507122953 56 349 1.7 7.8 0.00 0.11 0.03 83 1012.4
20260507122454 56 349 0.9 3.5 0.00 0.11 0.03 86 1012.5
20260507121954 55 349 1.7 3.5 0.00 0.11 0.03 85 1012.6
20260507121454 55 349 1.7 4.3 0.00 0.11 0.03 85 1012.7
20260507121225 55 349 1.7 4.3 0.00 0.11 0.03 85 1012.7
20260507120453 55 349 1.7 6.1 0.00 0.11 0.03 84 1012.7
20260507115954 55 349 1.7 6.1 0.00 0.11 0.03 84 1012.6
20260507115455 55 349 0.9 3.5 0.00 0.11 0.03 84 1012.4
20260507114952 55 349 0.9 4.3 0.00 0.11 0.03 84 1012.6
20260507114452 55 349 0.9 4.3 0.00 0.11 0.03 84 1012.4
20260507113953 55 349 1.7 6.1 0.00 0.11 0.03 84 1012.6
20260507113452 55 349 1.7 6.1 0.00 0.11 0.03 85 1012.4
20260507112952 55 349 1.7 4.3 0.00 0.11 0.03 85 1012.4
20260507112453 55 349 1.7 4.3 0.00 0.11 0.03 85 1012.6
20260507111953 55 349 1.7 6.1 0.00 0.11 0.03 85 1012.6
20260507111452 56 349 1.7 6.1 0.00 0.11 0.03 86 1012.3
20260507110952 56 349 1.7 7.0 0.00 0.11 0.03 86 1012.3
20260507110453 56 349 1.7 7.0 0.00 0.11 0.03 86 1012.3
20260507105951 56 349 1.7 7.0 0.00 0.11 0.03 87 1012.3
20260507105450 56 349 1.7 6.1 0.00 0.11 0.03 88 1012.1
20260507104950 57 349 1.7 6.1 0.00 0.11 0.03 88 1011.6
20260507104451 57 349 1.7 6.1 0.00 0.11 0.03 88 1012.0
20260507104220 57 349 1.7 5.2 0.00 0.11 0.03 89 1011.7
20260507103448 58 349 1.7 7.0 0.00 0.11 0.03 89 1011.9
20260507102944 58 349 2.6 12.2 0.00 0.11 0.03 89 1011.4
20260507102445 59 349 2.6 12.2 0.00 0.11 0.03 89 1011.2
20260507102214 60 349 1.7 7.0 0.00 0.11 0.03 90 1011.3
20260507101442 61 350 1.7 5.2 0.00 0.11 0.03 91 1011.2
20260507100942 62 349 1.7 4.3 0.00 0.11 0.03 91 1011.0
20260507100713 62 349 1.7 7.0 0.00 0.11 0.03 91 1010.8
20260507095942 62 349 1.7 7.0 0.00 0.11 0.03 91 1010.6
20260507095441 63 349 0.9 3.5 0.00 0.11 0.03 92 1010.6
20260507094935 63 349 1.7 5.2 0.00 0.11 0.03 92 1010.7
20260507094428 63 349 1.7 5.2 0.00 0.11 0.03 92 1010.8
20260507093923 63 349 0.9 3.5 0.00 0.11 0.03 92 1010.9
20260507093417 63 349 1.7 5.2 0.00 0.11 0.03 92 1011.0
20260507092911 63 349 0.9 5.2 0.01 0.11 0.03 92 1011.0
20260507092405 63 349 0.0 1.7 0.01 0.11 0.03 92 1011.0
20260507091859 63 349 0.0 0.9 0.01 0.11 0.03 92 1010.6
20260507091353 63 349 0.0 0.9 0.01 0.11 0.03 92 1010.5
20260507090847 63 349 0.0 0.0 0.01 0.11 0.03 92 1010.8
20260507090342 63 349 0.0 0.0 0.01 0.11 0.03 92 1010.8
20260507085835 63 349 0.0 0.0 0.01 0.11 0.03 92 1010.9
20260507085329 64 349 0.0 0.9 0.01 0.11 0.03 92 1010.7
20260507084823 64 349 0.0 0.9 0.01 0.11 0.03 92 1010.7
20260507084316 64 349 0.0 0.0 0.02 0.11 0.03 92 1010.5
20260507083811 64 349 0.0 0.0 0.02 0.11 0.03 92 1010.6
20260507083305 64 349 0.0 0.0 0.02 0.11 0.03 92 1010.7
20260507082759 64 350 0.0 0.0 0.01 0.10 0.02 92 1010.7
20260507082524 64 349 0.0 0.0 0.01 0.10 0.02 92 1010.6
20260507082018 64 349 0.0 0.0 0.01 0.10 0.02 91 1010.9
20260507081241 64 349 0.0 0.0 0.01 0.10 0.02 91 1010.8
20260507080735 64 349 0.0 0.0 0.01 0.10 0.02 91 1010.9
20260507080228 64 349 0.0 0.0 0.01 0.10 0.02 91 1010.7
20260507075723 64 349 0.0 0.0 0.01 0.10 0.02 91 1010.4
20260507075217 64 349 0.0 0.0 0.01 0.10 0.02 91 1010.5
20260507074711 64 349 0.0 0.0 0.00 0.09 0.02 91 1010.7
20260507074205 64 349 0.0 0.0 0.00 0.09 0.01 91 1010.9
20260507073931 64 349 0.0 0.0 0.00 0.09 0.01 91 1010.9
20260507073153 64 349 0.0 0.0 0.00 0.09 0.01 91 1010.6
20260507072647 64 349 0.0 0.0 0.00 0.09 0.01 91 1010.2
20260507072141 64 349 0.0 0.9 0.00 0.09 0.01 91 1010.0
20260507071635 65 349 0.0 0.9 0.00 0.09 0.01 91 1009.8
20260507071129 65 349 0.0 0.9 0.00 0.09 0.01 91 1010.1
20260507070623 65 349 0.0 0.9 0.00 0.09 0.01 90 1010.2
20260507070117 65 349 0.0 0.9 0.01 0.09 0.01 90 1010.1
20260507065611 65 349 0.0 0.9 0.01 0.09 0.01 90 1010.2
20260507065105 65 349 0.0 3.5 0.01 0.09 0.01 90 1010.3
20260507064559 65 349 0.0 3.5 0.01 0.09 0.01 90 1010.4
20260507064054 65 349 0.0 3.5 0.01 0.09 0.01 90 1010.3
20260507063546 65 349 0.0 2.6 0.01 0.09 0.01 90 1010.1
20260507063041 65 349 0.9 5.2 0.01 0.09 0.01 89 1010.1
20260507062535 65 349 0.0 5.2 0.01 0.09 0.01 89 1010.0
20260507062029 65 349 0.9 2.6 0.01 0.09 0.01 89 1010.1
20260507061523 65 349 0.9 2.6 0.01 0.09 0.01 89 1010.2
20260507061018 65 349 0.0 2.6 0.01 0.09 0.01 89 1010.4
20260507060742 66 350 0.9 2.6 0.00 0.08 0.00 89 1010.2
20260507060005 66 349 0.9 2.6 0.00 0.08 0.00 88 1010.2
20260507055729 66 349 0.0 2.6 0.00 0.08 0.00 88 1010.3
20260507054953 66 349 0.0 1.7 0.00 0.08 0.00 88 1010.3
20260507054447 66 349 0.0 0.9 0.00 0.08 0.00 87 1010.2
20260507053942 66 349 0.0 2.6 0.00 0.08 0.00 87 1010.2
20260507053201 66 349 0.0 2.6 0.00 0.08 0.00 87 1010.1
20260507052423 66 349 0.0 1.7 0.00 0.08 0.00 87 1010.1
20260507051918 66 349 0.0 2.6 0.00 0.08 0.00 87 1009.9
20260507051411 66 349 0.0 2.6 0.00 0.08 0.00 87 1010.1
20260507050905 66 349 0.0 1.7 0.00 0.08 0.00 87 1010.0
20260507050400 66 349 0.0 1.7 0.00 0.08 0.00 87 1010.2
20260507045859 66 349 0.0 3.5 0.00 0.08 0.00 86 1010.4
20260507045359 67 349 0.0 3.5 0.00 0.08 0.00 86 1010.6
20260507044859 67 349 0.0 3.5 0.00 0.08 0.00 86 1010.5
20260507043857 67 349 0.9 4.3 0.00 0.08 0.00 86 1011.1
20260507043355 67 349 0.0 2.6 0.00 0.08 0.00 86 1011.4
20260507042855 67 349 0.0 3.5 0.00 0.08 0.00 86 1011.8
20260507042355 67 349 0.0 3.5 0.00 0.08 0.00 85 1011.8
20260507041856 67 349 0.0 3.5 0.00 0.08 0.00 85 1011.7
20260507041355 67 349 0.9 3.5 0.00 0.08 0.00 85 1011.6
20260507040853 67 349 0.0 3.5 0.00 0.08 0.00 84 1011.6
20260507040353 67 349 0.0 3.5 0.00 0.08 0.00 84 1011.7
20260507035854 68 349 0.0 3.5 0.00 0.08 0.08 83 1011.7
20260507035350 68 349 0.0 4.3 0.00 0.08 0.08 83 1011.9
20260507034848 68 349 0.0 4.3 0.00 0.08 0.08 83 1011.8
20260507034347 67 349 0.0 4.3 0.00 0.08 0.08 83 1011.5
20260507033839 67 349 0.0 4.3 0.00 0.08 0.08 83 1010.7
20260507032551 68 349 0.9 5.2 0.00 0.08 0.08 83 1011.3
20260507031815 68 349 0.0 5.2 0.00 0.08 0.08 83 1011.5
20260507031310 68 349 0.0 1.7 0.00 0.08 0.08 82 1011.7
20260507030812 68 349 0.0 5.2 0.00 0.08 0.08 82 1011.5
20260507030257 68 349 0.0 5.2 0.00 0.08 0.08 82 1011.3
20260507030021 68 349 0.0 7.0 0.00 0.08 0.08 82 1010.9
20260507025515 68 350 0.9 7.0 0.00 0.08 0.08 82 1010.9
20260507025009 68 349 0.9 3.5 0.00 0.08 0.08 82 1010.8
20260507024233 68 349 0.9 4.3 0.00 0.08 0.08 83 1010.5
20260507023727 68 350 0.9 6.1 0.00 0.08 0.08 83 1010.4
20260507023221 67 349 0.0 3.5 0.00 0.08 0.08 83 1010.4
20260507022715 67 349 0.9 6.1 0.00 0.08 0.08 83 1010.4
20260507022209 67 349 0.9 6.1 0.00 0.08 0.08 83 1010.4
20260507021703 67 349 0.9 5.2 0.00 0.08 0.08 83 1010.4
20260507021158 67 349 0.9 5.2 0.00 0.08 0.08 84 1010.5
20260507020650 67 349 0.9 3.5 0.00 0.08 0.08 84 1010.7
20260507020151 67 349 0.9 2.6 0.00 0.08 0.08 84 1010.8
20260507015909 67 349 0.9 5.2 0.00 0.08 0.08 84 1010.9
20260507015134 67 349 0.9 5.2 0.00 0.08 0.08 85 1010.9
20260507014628 67 349 0.9 2.6 0.00 0.08 0.08 85 1011.0
20260507014122 67 349 0.0 2.6 0.00 0.08 0.08 85 1011.0
20260507013615 66 349 0.0 0.9 0.00 0.08 0.08 85 1011.1
20260507013109 66 349 0.0 0.9 0.00 0.08 0.08 85 1011.3
20260507012057 66 350 0.0 0.9 0.00 0.08 0.08 85 1011.4
20260507011551 66 349 0.0 0.9 0.00 0.08 0.08 85 1011.1
20260507011045 66 349 0.0 0.9 0.00 0.08 0.08 85 1011.0
20260507010539 66 349 0.0 0.0 0.00 0.08 0.08 84 1011.0
20260507010035 67 349 0.0 0.0 0.00 0.08 0.08 84 1011.1
20260507005527 67 349 0.0 0.9 0.00 0.08 0.08 84 1011.0
20260507005021 67 349 0.0 1.7 0.00 0.08 0.08 84 1010.9
20260507004515 67 349 0.0 1.7 0.00 0.08 0.08 83 1010.9
20260507004010 67 349 0.0 0.0 0.00 0.08 0.08 83 1010.7
20260507003503 67 349 0.0 0.0 0.00 0.08 0.08 82 1010.7
20260507002957 67 349 0.0 0.9 0.00 0.08 0.08 82 1010.6
20260507002452 68 349 0.0 0.9 0.00 0.08 0.08 82 1010.6
20260507001945 68 349 0.0 0.9 0.00 0.08 0.08 81 1010.7
20260507001439 68 349 0.0 1.7 0.00 0.08 0.08 81 1010.8
20260507001206 68 349 0.0 4.3 0.00 0.08 0.08 81 1010.9
20260507000427 68 349 0.0 4.3 0.00 0.08 0.08 80 1011.1
20260506235921 69 349 0.0 3.5 0.00 0.08 0.08 80 1010.9
20260506235415 69 349 0.0 3.5 0.00 0.08 0.08 80 1010.9
20260506234909 69 349 0.0 3.5 0.00 0.08 0.08 80 1011.1
20260506234403 69 349 0.0 0.9 0.00 0.08 0.08 79 1011.3
20260506233901 69 349 0.0 0.9 0.00 0.08 0.08 79 1011.1
20260506233401 69 349 0.0 0.9 0.00 0.08 0.08 78 1011.0
20260506232900 69 349 0.0 4.3 0.00 0.08 0.08 78 1011.1
20260506232400 70 350 0.0 4.3 0.00 0.08 0.08 78 1011.1
20260506231859 70 349 0.0 3.5 0.00 0.08 0.08 78 1010.9